Probability
0 0 0 0 0 0 0 0 0 0 0 0 0 0 0 0 0 0 0 0 0 0 0 0 0 0 0 0 0 0 0 0 0 0 0 0 0 0 0 0 0 0 0
0 0 0 0 0 0 0 0 0 0 0 0 0 0 0 0 0 0 0 0 0 0 0 0 0 0 0 0 0 0 0 0 0 0 0 0 0 0 0 0 0 0 0
0 0 0 1 1 1 0 0 0 0 0 0 0 0 0 0 0 0 0 0 0 0 0 0 0 0 0 0 0 0 0 0 0 0 0 0 0 0 0 0 0 0 0
1 1 1 1 2 1 0 0 0 0 0 0 0 0 0 0 0 0 0 0 0 0 0 0 0 0 0 0 0 0 0 0 0 0 0 0 0 0 0 0 0 0 0
3 3 2 1 1 1 0 0 0 0 0 0 0 0 0 0 0 0 0 0 0 0 0 0 0 0 0 0 0 0 0 0 0 0 0 0 0 0 0 0 0 0 0
6 5 3 2 1 0 0 0 0 0 0 0 0 0 0 0 0 0 0 0 0 0 0 0 0 0 0 0 0 0 0 0 0 0 0 0 0 0 0 0 0 0 0
7 6 4 2 1 0 0 0 0 0 0 0 0 0 0 0 0 0 0 0 0 0 0 0 0 0 0 0 0 0 0 0 0 0 0 0 0 0 0 0 0 0 0
8 6 4 2 1 0 0 0 0 0 0 0 0 0 0 0 0 0 0 0 0 0 0 0 0 0 0 0 0 0 0 0 0 0 0 0 0 0 0 0 0 0 0
8 6 4 3 1 0 0 0 0 0 0 0 0 0 0 0 0 0 0 0 0 0 0 0 0 0 0 0 0 0 0 0 0 0 0 0 0 0 0 0 0 0 0
7 5 4 3 2 1 0 0 0 0 0 0 0 0 0 0 0 0 0 0 0 0 0 0 0 0 0 0 0 0 0 0 0 0 0 0 0 0 0 0 0 0 0
6 5 4 3 3 2 1 0 0 0 0 0 0 0 0 0 0 0 0 0 0 0 0 0 0 0 0 0 0 0 0 0 0 0 0 0 0 0 0 0 0 0 0
7 6 4 4 3 1 1 2 1 0 0 0 0 0 0 0 0 0 0 0 0 0 0 0 0 0 0 0 0 0 0 0 0 0 0 0 0 0 0 0 0 0 0
6 7 6 6 4 3 3 4 2 0 0 0 0 0 0 0 0 0 0 0 0 0 0 0 0 0 0 1 0 0 0 0 0 0 0 0 0 0 0 0 0 0 0
8 8 8 9 9 7 6 5 3 1 1 0 0 0 0 0 0 0 1 0 0 0 0 0 0 0 0 0 0 0 0 0 0 0 0 0 0 0 0 0 0 0 0
14 14 14 14 14 11 9 7 5 3 2 1 1 0 0 0 0 0 1 1 0 0 0 0 0 0 0 0 0 0 0 0 0 0 0 0 0 0 0 0 0 0 0
25 25 23 19 16 14 11 8 6 5 4 3 2 1 0 0 0 0 0 1 0 0 1 1 1 1 0 0 0 0 0 0 0 0 0 0 0 0 0 0 0 0 0
39 36 30 23 19 17 13 8 5 4 4 3 4 3 1 1 1 1 1 0 0 1 2 4 4 3 1 0 0 0 0 1 1 1 0 0 0 0 0 0 0 0 0
48 44 35 28 26 25 18 10 4 3 3 4 5 5 4 3 4 4 2 1 2 2 3 3 4 3 2 1 0 1 2 3 2 2 1 0 0 0 1 1 1 1 0
53 49 41 35 34 31 25 15 7 3 3 3 6 8 8 7 8 8 6 4 4 3 2 2 2 2 3 2 1 2 5 5 4 3 2 1 0 1 2 2 2 2 1
58 53 45 41 39 36 30 23 15 8 5 5 7 11 13 12 12 13 11 9 7 5 3 3 3 3 3 3 1 3 5 6 5 4 2 1 1 2 3 4 5 4 3
62 57 49 46 45 41 35 29 23 16 11 9 10 13 16 16 16 16 15 14 10 7 6 5 4 4 4 3 3 4 5 5 5 4 3 1 1 3 4 6 8 8 6
66 61 55 52 51 47 40 34 30 25 20 15 15 18 20 19 18 18 18 15 10 7 6 7 6 5 5 5 5 5 4 3 3 3 3 3 3 4 5 6 10 11 9
67 65 61 60 58 54 47 39 35 35 30 22 21 25 24 22 19 19 18 13 8 5 6 9 9 8 8 7 7 6 4 2 1 1 2 4 5 6 5 6 9 12 13
66 67 68 67 65 60 54 44 39 39 37 30 28 29 27 23 20 20 18 14 9 6 6 8 10 12 13 11 10 8 6 4 2 1 1 2 4 5 5 5 6 11 15
64 68 71 72 71 66 59 50 43 39 38 35 33 31 27 23 20 20 19 17 13 8 6 7 10 14 16 14 13 10 8 7 5 2 1 0 2 3 6 6 6 11 16
60 67 72 75 75 68 60 54 47 41 39 37 35 32 27 22 19 20 21 20 17 10 7 9 11 14 16 17 15 10 8 9 7 3 1 0 1 3 8 11 10 12 17
Wind_Speed
10 10 10 10 10 9 10 10 11 12 12 12 12 11 12 12 12 12 12 12 12 11 11 11 11 11 12 13 13 13 14 14 15 15 15 15 14 13 12 12 13 12 15
14 11 11 10 10 10 10 10 11 11 11 11 11 11 11 11 11 11 11 11 11 11 11 10 10 11 11 12 12 12 12 13 14 15 14 13 13 11 11 11 13 10 14
15 13 12 11 11 11 10 10 11 11 10 10 11 10 10 10 11 11 11 10 10 11 10 10 10 11 11 11 11 11 11 12 12 13 12 9 9 12 13 14 14 13 13
16 13 13 12 12 11 11 10 10 10 10 10 10 10 10 10 10 10 10 9 10 10 10 10 10 11 11 11 11 10 10 10 10 9 5 7 8 11 13 13 12 12 12
15 14 14 13 12 12 11 10 10 10 10 10 10 9 9 9 9 9 9 9 9 10 10 10 10 11 11 11 10 8 7 7 7 5 5 7 7 10 12 12 12 12 11
17 16 14 13 13 12 11 10 10 10 10 9 9 9 9 9 9 9 9 9 9 9 10 10 10 11 11 10 8 6 4 3 4 4 6 7 7 10 11 11 11 11 10
17 16 14 13 12 12 11 10 10 10 9 9 9 8 8 8 9 9 9 9 8 9 9 10 10 10 10 9 7 5 3 3 2 4 6 7 8 10 10 10 10 10 10
16 16 14 13 12 11 11 10 10 9 9 9 8 8 8 8 9 9 9 9 8 8 9 9 9 9 9 7 5 3 2 4 2 6 8 8 10 10 10 9 9 9 9
16 15 13 12 11 11 11 10 9 9 8 8 8 8 8 9 9 9 9 9 8 8 8 8 8 8 7 6 4 3 3 4 1 3 8 8 10 10 10 9 9 8 8
12 13 12 12 11 11 10 10 9 9 8 7 7 8 8 9 9 9 9 9 9 8 8 8 8 8 7 6 4 4 4 4 2 4 6 8 11 11 10 9 8 8 8
9 9 10 11 10 10 11 11 10 9 8 7 7 8 7 5 7 7 9 10 9 8 7 7 7 7 7 6 5 5 4 2 2 4 6 12 12 11 10 9 8 8 8
8 8 7 8 8 8 8 9 6 7 7 6 5 7 5 4 4 7 10 10 9 7 7 7 7 7 6 4 5 6 3 3 3 5 7 13 12 11 10 9 8 9 8
9 7 7 6 5 5 5 6 4 3 4 5 4 4 4 3 4 6 5 5 5 6 5 6 6 4 4 3 3 4 3 2 2 4 8 13 12 11 10 9 9 9 9
9 7 7 6 5 4 3 3 3 3 4 4 4 4 3 2 2 4 3 4 4 3 3 3 3 4 4 3 3 3 2 1 2 4 7 13 12 11 10 10 9 9 9
8 7 7 7 5 4 3 1 2 2 3 4 4 3 3 3 3 3 3 3 3 3 4 3 3 3 2 3 3 3 2 2 3 4 6 12 12 11 11 10 10 9 9
8 7 7 7 6 4 2 1 1 1 2 2 4 5 3 2 2 3 3 2 2 2 2 3 4 3 3 2 2 2 2 2 3 5 6 9 12 12 11 11 11 11 10
8 7 7 7 7 6 4 4 2 2 3 1 3 4 4 2 3 3 2 3 3 3 3 3 3 2 3 3 3 3 2 2 3 4 5 6 7 11 12 12 12 11 11
8 8 7 7 8 6 4 3 2 1 1 2 2 3 4 3 3 2 2 2 2 2 3 3 2 3 3 2 3 3 3 2 3 3 4 5 5 7 11 14 13 12 12
7 7 6 4 7 7 6 4 2 1 0 1 1 2 3 4 4 3 2 2 2 2 2 3 3 2 2 2 2 3 3 3 3 5 4 5 5 6 7 11 14 13 14
8 7 7 5 5 5 5 3 2 2 2 2 2 2 3 3 4 3 3 3 3 1 1 1 1 2 1 2 3 2 2 3 3 4 5 5 5 7 7 8 8 10 15
9 8 7 7 6 5 4 4 3 3 3 3 3 4 4 4 4 3 2 2 2 2 2 2 2 3 2 2 1 1 2 4 4 4 4 4 5 5 5 7 7 6 7
10 8 8 7 7 6 4 3 3 3 2 3 2 3 4 4 3 4 3 3 3 2 2 3 2 2 2 3 2 1 2 2 2 5 4 4 5 4 5 7 7 6 5
10 10 8 8 7 7 6 4 3 2 1 1 2 2 3 4 4 3 3 3 2 3 3 3 3 4 3 3 3 2 2 2 1 2 3 4 4 4 4 4 6 7 7
11 10 8 8 7 7 6 5 5 4 3 3 2 2 3 3 3 4 4 3 3 3 3 4 4 3 3 3 3 3 3 2 1 1 2 3 3 4 4 4 4 5 6
11 11 9 8 7 6 6 5 4 4 3 2 2 2 2 2 3 4 4 3 3 3 3 3 3 4 3 3 3 2 3 3 4 3 3 2 2 3 4 4 4 3 4
10 10 10 9 7 7 6 5 5 4 3 2 3 2 2 2 3 4 4 3 3 3 3 3 3 4 4 4 3 3 3 3 3 3 3 3 2 3 3 3 3 3 4
Wind_Direction
109 106 104 102 99 95 97 95 96 96 97 95 93 91 92 93 93 94 95 97 100 103 106 106 103 102 100 99 98 100 100 101 103 103 102 102 102 104 104 107 106 100 104
114 113 111 108 104 103 101 98 99 99 99 99 98 96 95 96 96 97 98 98 102 105 107 108 110 109 107 106 107 108 108 110 112 112 110 105 104 102 100 95 98 107 110
117 120 116 108 106 105 103 101 101 101 101 101 101 99 99 100 100 100 100 99 102 105 109 112 113 113 111 109 113 116 118 121 123 125 122 110 104 100 96 98 104 109 109
123 122 112 109 106 105 105 103 103 103 102 103 102 102 101 100 100 102 102 101 103 106 111 113 116 117 116 113 116 121 128 134 139 141 127 116 110 107 107 108 110 109 110
113 109 111 113 109 108 107 107 105 104 103 102 102 102 103 103 104 104 103 103 104 108 111 114 117 118 118 119 121 127 136 148 158 145 104 97 100 116 116 115 114 112 111
120 116 115 116 114 112 110 109 105 106 106 104 105 106 107 109 109 108 105 105 107 110 113 115 117 118 120 125 131 140 155 182 182 143 126 119 115 122 121 121 118 115 115
117 117 122 121 118 117 115 112 109 109 110 112 113 112 112 112 112 112 109 109 109 113 117 118 119 121 126 131 139 152 189 244 210 137 122 115 120 127 124 123 121 118 117
118 117 124 126 125 123 121 118 115 113 113 115 118 120 120 118 118 117 115 115 116 118 121 123 124 126 128 136 151 174 219 268 173 126 115 113 126 127 127 127 126 127 124
123 128 137 138 134 131 129 125 122 119 118 120 124 128 129 128 127 126 123 122 123 122 125 127 128 132 138 146 167 195 235 272 247 129 120 119 131 131 131 134 136 135 132
125 134 142 145 144 147 140 137 134 134 132 134 138 142 142 138 136 138 133 129 129 130 131 133 134 138 145 158 186 223 252 276 198 116 110 128 136 136 138 141 143 144 143
126 134 143 142 151 154 148 145 151 150 152 157 161 162 162 166 152 150 134 137 138 141 142 143 146 150 159 178 204 225 249 247 135 104 109 135 143 142 143 145 149 152 150
137 131 136 142 149 151 143 144 161 166 161 191 172 172 183 180 146 134 138 146 151 155 157 160 164 170 185 187 201 218 238 216 142 123 130 145 147 148 148 151 154 157 156
145 143 140 133 130 127 129 153 158 154 158 182 165 163 168 149 141 137 150 155 167 174 179 164 180 197 205 198 187 207 224 215 143 124 141 151 152 155 156 159 161 163 164
143 145 133 120 102 79 85 121 147 158 163 154 154 183 152 151 165 148 157 161 171 176 172 178 193 203 202 193 199 215 207 191 136 118 148 157 159 164 167 170 173 175 176
143 143 122 114 102 90 65 3 150 149 152 149 155 173 159 164 156 146 149 154 170 166 168 183 200 198 193 201 204 207 199 159 148 145 147 166 169 173 177 179 183 186 188
148 144 135 135 132 134 146 237 336 174 132 161 158 156 168 156 140 145 145 160 176 180 177 182 188 185 201 207 202 207 196 180 168 150 153 173 180 183 187 190 192 195 197
150 150 150 155 152 163 176 196 202 217 161 171 138 147 160 164 156 154 162 176 195 183 176 190 196 181 200 207 195 204 199 201 181 167 166 172 181 192 195 197 198 200 204
153 155 176 175 157 165 185 199 226 233 132 146 156 154 159 173 168 168 178 188 183 185 185 188 204 190 203 207 193 203 199 194 188 189 186 186 181 186 198 202 202 203 206
152 156 170 169 158 169 180 187 223 207 102 169 149 155 168 183 183 188 193 182 198 199 198 207 179 194 200 209 215 203 202 194 192 210 208 201 189 185 184 196 203 205 209
155 158 166 175 166 171 174 178 207 206 190 203 199 178 177 193 194 196 205 196 209 196 199 211 170 192 220 222 246 211 218 212 196 206 208 208 198 194 190 184 193 209 213
162 165 169 178 174 179 185 184 190 200 206 202 206 187 189 204 195 197 235 171 198 204 208 212 199 204 220 231 244 255 250 236 210 205 206 209 204 204 193 178 185 192 202
169 170 172 178 179 186 188 187 191 195 212 205 208 183 196 203 200 205 204 205 194 197 220 228 219 217 230 219 209 225 253 257 249 226 201 207 214 203 201 194 191 190 194
173 177 182 180 180 185 185 187 190 174 197 221 202 194 208 209 214 223 199 214 203 205 207 214 220 217 228 241 223 209 220 234 259 260 226 216 205 199 208 206 196 194 197
177 176 173 174 179 177 181 194 196 189 197 204 197 201 211 217 221 217 211 209 215 231 208 218 218 223 227 240 243 233 235 216 218 270 262 238 219 212 213 223 216 195 195
175 172 171 168 174 174 183 190 192 203 203 194 181 195 207 214 220 223 215 203 206 228 229 234 231 228 229 234 237 239 244 238 225 224 250 253 246 232 221 210 215 202 191
170 167 166 164 170 174 185 193 192 202 200 199 193 191 204 212 212 217 222 200 205 221 229 232 235 236 239 244 248 245 235 229 230 222 235 240 235 237 227 215 210 201 194